Time,TemperatureF,DewpointF,PressureIn,WindDirection,WindDirectionDegrees,WindSpeedMPH,WindSpeedGustMPH,Humidity,HourlyPrecipIn,Conditions,Clouds,dailyrainin,SoftwareType,DateUTC
2013-03-23 00:00:00,35.4,33.0,30.37,SSW,204,0.0,0.0,91,0.00,,,0.05,weatherlink.com 1.10,2013-03-23 07:00:00,
2013-03-23 00:15:00,34.6,33.0,30.36,SSW,204,0.0,0.0,92,0.00,,,0.00,weatherlink.com 1.10,2013-03-23 07:15:00,
2013-03-23 00:30:00,34.9,33.0,30.37,SSW,204,0.0,0.0,93,0.00,,,0.00,weatherlink.com 1.10,2013-03-23 07:30:00,
2013-03-23 00:45:00,35.1,33.0,30.38,WSW,248,0.0,1.0,93,0.00,,,0.00,weatherlink.com 1.10,2013-03-23 07:45:00,
2013-03-23 01:00:00,34.9,33.0,30.38,WSW,248,0.0,0.0,93,0.00,,,0.00,weatherlink.com 1.10,2013-03-23 08:00:00,
2013-03-23 01:15:00,35.1,34.0,30.37,WSW,249,0.0,0.0,94,0.00,,,0.00,weatherlink.com 1.10,2013-03-23 08:15:00,
2013-03-23 01:30:00,34.8,33.0,30.37,WSW,249,0.0,0.0,94,0.00,,,0.00,weatherlink.com 1.10,2013-03-23 08:30:00,
2013-03-23 01:45:00,34.8,33.0,30.37,WSW,249,0.0,0.0,94,0.00,,,0.00,weatherlink.com 1.10,2013-03-23 08:45:00,
2013-03-23 02:00:00,34.8,33.0,30.38,SSW,210,0.0,1.0,94,0.00,,,0.00,weatherlink.com 1.10,2013-03-23 09:00:00,
2013-03-23 02:15:00,34.4,33.0,30.38,SSW,195,0.0,0.0,95,0.00,,,0.00,weatherlink.com 1.10,2013-03-23 09:15:00,
2013-03-23 02:30:00,34.4,33.0,30.38,SSW,195,0.0,0.0,95,0.00,,,0.00,weatherlink.com 1.10,2013-03-23 09:30:00,
2013-03-23 02:45:00,34.2,33.0,30.38,SSW,195,0.0,0.0,95,0.00,,,0.00,weatherlink.com 1.10,2013-03-23 09:45:00,
2013-03-23 03:00:00,34.4,33.0,30.37,SSW,195,0.0,0.0,95,0.00,,,0.00,weatherlink.com 1.10,2013-03-23 10:00:00,
2013-03-23 03:15:00,34.6,33.0,30.37,SSW,195,0.0,0.0,95,0.00,,,0.00,weatherlink.com 1.10,2013-03-23 10:15:00,
2013-03-23 03:30:00,34.4,33.0,30.37,SSW,195,0.0,0.0,95,0.00,,,0.00,weatherlink.com 1.10,2013-03-23 10:30:00,
2013-03-23 03:45:00,34.3,33.0,30.37,SSW,195,0.0,0.0,95,0.00,,,0.00,weatherlink.com 1.10,2013-03-23 10:45:00,
2013-03-23 04:00:00,34.3,33.0,30.37,South,190,0.0,0.0,96,0.00,,,0.00,weatherlink.com 1.10,2013-03-23 11:00:00,
2013-03-23 04:15:00,34.4,33.0,30.37,WSW,245,0.0,1.0,95,0.00,,,0.00,weatherlink.com 1.10,2013-03-23 11:15:00,
2013-03-23 04:30:00,34.2,33.0,30.37,WSW,245,0.0,0.0,95,0.00,,,0.00,weatherlink.com 1.10,2013-03-23 11:30:00,
2013-03-23 05:00:00,34.2,33.0,30.37,SW,224,0.0,0.0,96,0.00,,,0.00,weatherlink.com 1.10,2013-03-23 12:00:00,
2013-03-23 05:15:00,34.4,33.0,30.38,SW,224,0.0,0.0,96,0.00,,,0.00,weatherlink.com 1.10,2013-03-23 12:15:00,
2013-03-23 05:30:00,34.4,33.0,30.37,SW,224,0.0,0.0,96,0.00,,,0.00,weatherlink.com 1.10,2013-03-23 12:30:00,
2013-03-23 05:45:00,34.3,33.0,30.37,SSW,193,0.0,0.0,96,0.00,,,0.00,weatherlink.com 1.10,2013-03-23 12:45:00,
2013-03-23 06:00:00,34.4,33.0,30.37,SSW,193,0.0,0.0,96,0.00,,,0.00,weatherlink.com 1.10,2013-03-23 13:00:00,
2013-03-23 06:15:00,34.3,33.0,30.37,SSW,193,0.0,0.0,96,0.00,,,0.00,weatherlink.com 1.10,2013-03-23 13:15:00,
2013-03-23 06:30:00,34.5,34.0,30.38,SSE,155,0.0,1.0,96,0.00,,,0.00,weatherlink.com 1.10,2013-03-23 13:30:00,
2013-03-23 06:45:00,34.6,34.0,30.38,SSE,155,0.0,0.0,96,0.00,,,0.00,weatherlink.com 1.10,2013-03-23 13:45:00,
2013-03-23 07:00:00,34.5,34.0,30.38,SE,142,0.0,1.0,97,0.00,,,0.00,weatherlink.com 1.10,2013-03-23 14:00:00,
2013-03-23 07:15:00,34.7,34.0,30.38,SE,143,0.0,0.0,97,0.00,,,0.00,weatherlink.com 1.10,2013-03-23 14:15:00,
2013-03-23 07:30:00,34.8,34.0,30.38,SSE,152,0.0,0.0,97,0.00,,,0.00,weatherlink.com 1.10,2013-03-23 14:30:00,
2013-03-23 07:45:00,34.9,34.0,30.38,SSE,151,0.0,1.0,97,0.00,,,0.00,weatherlink.com 1.10,2013-03-23 14:45:00,
2013-03-23 08:00:00,35.4,35.0,30.38,SSW,198,0.0,0.0,97,0.00,,,0.00,weatherlink.com 1.10,2013-03-23 15:00:00,
2013-03-23 08:15:00,35.7,35.0,30.38,SSW,199,0.0,0.0,97,0.00,,,0.00,weatherlink.com 1.10,2013-03-23 15:15:00,
2013-03-23 08:31:00,36.2,36.0,30.38,South,186,0.0,0.0,98,0.00,,,0.00,weatherlink.com 1.10,2013-03-23 15:31:00,
2013-03-23 08:46:00,36.8,36.0,30.38,SSW,204,0.0,0.0,97,0.00,,,0.00,weatherlink.com 1.10,2013-03-23 15:46:00,
2013-03-23 09:01:00,37.1,36.0,30.38,SE,139,0.0,2.0,96,0.00,,,0.00,weatherlink.com 1.10,2013-03-23 16:01:00,
2013-03-23 09:16:00,37.5,36.0,30.39,SE,146,0.0,3.0,94,0.00,,,0.00,weatherlink.com 1.10,2013-03-23 16:16:00,
2013-03-23 09:31:00,38.0,36.0,30.39,SSW,193,1.0,2.0,93,0.00,,,0.00,weatherlink.com 1.10,2013-03-23 16:31:00,
2013-03-23 10:31:00,41.4,38.0,30.38,SW,224,0.0,4.0,87,0.00,,,0.00,weatherlink.com 1.10,2013-03-23 17:31:00,
2013-03-23 11:16:00,43.8,37.0,30.38,South,188,2.0,5.0,77,0.00,,,0.00,weatherlink.com 1.10,2013-03-23 18:16:00,
2013-03-23 11:46:00,44.3,37.0,30.38,ESE,123,2.0,6.0,74,0.00,,,0.00,weatherlink.com 1.10,2013-03-23 18:46:00,
2013-03-23 12:01:00,44.3,37.0,30.37,ESE,114,4.0,6.0,74,0.00,,,0.00,weatherlink.com 1.10,2013-03-23 19:01:00,
2013-03-23 12:16:00,45.1,36.0,30.37,South,179,1.0,4.0,71,0.00,,,0.00,weatherlink.com 1.10,2013-03-23 19:16:00,
2013-03-23 12:31:00,46.0,36.0,30.36,SW,235,1.0,4.0,68,0.00,,,0.00,weatherlink.com 1.10,2013-03-23 19:31:00,
2013-03-23 12:46:00,46.7,35.0,30.36,SSW,210,2.0,5.0,63,0.00,,,0.00,weatherlink.com 1.10,2013-03-23 19:46:00,
2013-03-23 13:01:00,47.9,34.0,30.35,SSE,148,2.0,6.0,59,0.00,,,0.00,weatherlink.com 1.10,2013-03-23 20:01:00,
2013-03-23 13:16:00,48.8,34.0,30.35,ESE,113,1.0,7.0,57,0.00,,,0.00,weatherlink.com 1.10,2013-03-23 20:16:00,
2013-03-23 13:32:00,46.8,35.0,30.34,ESE,116,3.0,7.0,65,0.00,,,0.00,weatherlink.com 1.10,2013-03-23 20:32:00,
2013-03-23 13:46:00,47.2,35.0,30.34,SSE,151,1.0,7.0,62,0.00,,,0.00,weatherlink.com 1.10,2013-03-23 20:46:00,
2013-03-23 14:01:00,46.8,34.0,30.34,South,180,3.0,5.0,62,0.00,,,0.00,weatherlink.com 1.10,2013-03-23 21:01:00,
2013-03-23 14:16:00,47.6,34.0,30.33,ESE,113,1.0,5.0,60,0.00,,,0.00,weatherlink.com 1.10,2013-03-23 21:16:00,
2013-03-23 14:32:00,47.0,34.0,30.33,ESE,120,4.0,6.0,60,0.00,,,0.00,weatherlink.com 1.10,2013-03-23 21:32:00,
2013-03-23 14:47:00,47.5,34.0,30.33,SE,133,4.0,7.0,59,0.00,,,0.00,weatherlink.com 1.10,2013-03-23 21:47:00,
2013-03-23 15:02:00,47.1,33.0,30.32,ESE,122,3.0,8.0,59,0.00,,,0.00,weatherlink.com 1.10,2013-03-23 22:02:00,
2013-03-23 15:17:00,46.8,33.0,30.32,SW,229,1.0,5.0,59,0.00,,,0.00,weatherlink.com 1.10,2013-03-23 22:17:00,
2013-03-23 15:32:00,46.9,33.0,30.32,East,99,2.0,6.0,58,0.00,,,0.00,weatherlink.com 1.10,2013-03-23 22:32:00,
2013-03-23 15:47:00,47.8,32.0,30.32,SE,128,2.0,6.0,54,0.00,,,0.00,weatherlink.com 1.10,2013-03-23 22:47:00,
2013-03-23 16:02:00,47.5,31.0,30.32,ESE,116,0.0,4.0,54,0.00,,,0.00,weatherlink.com 1.10,2013-03-23 23:02:00,
2013-03-23 16:17:00,48.5,31.0,30.31,East,95,3.0,5.0,52,0.00,,,0.00,weatherlink.com 1.10,2013-03-23 23:17:00,
2013-03-23 16:47:00,49.8,32.0,30.30,East,96,3.0,6.0,51,0.00,,,0.00,weatherlink.com 1.10,2013-03-23 23:47:00,
2013-03-23 17:02:00,48.9,30.0,30.30,East,88,4.0,5.0,49,0.00,,,0.00,weatherlink.com 1.10,2013-03-24 00:02:00,
2013-03-23 17:17:00,48.3,32.0,30.30,ESE,116,2.0,5.0,53,0.00,,,0.00,weatherlink.com 1.10,2013-03-24 00:17:00,
2013-03-23 17:32:00,47.8,31.0,30.30,East,88,3.0,5.0,52,0.00,,,0.00,weatherlink.com 1.10,2013-03-24 00:32:00,
2013-03-23 17:47:00,47.6,31.0,30.30,ESE,110,2.0,5.0,53,0.00,,,0.00,weatherlink.com 1.10,2013-03-24 00:47:00,
2013-03-23 18:02:00,47.3,30.0,30.30,East,96,4.0,4.0,52,0.00,,,0.00,weatherlink.com 1.10,2013-03-24 01:02:00,
2013-03-23 18:17:00,47.0,30.0,30.30,SE,126,1.0,3.0,53,0.00,,,0.00,weatherlink.com 1.10,2013-03-24 01:17:00,
2013-03-23 18:32:00,46.8,31.0,30.30,SE,145,0.0,2.0,55,0.00,,,0.00,weatherlink.com 1.10,2013-03-24 01:32:00,
2013-03-23 18:47:00,46.0,31.0,30.30,SE,142,0.0,0.0,56,0.00,,,0.00,weatherlink.com 1.10,2013-03-24 01:47:00,
2013-03-23 19:02:00,44.9,31.0,30.29,SE,143,0.0,0.0,58,0.00,,,0.00,weatherlink.com 1.10,2013-03-24 02:02:00,
2013-03-23 19:17:00,43.9,31.0,30.29,SE,143,0.0,0.0,61,0.00,,,0.00,weatherlink.com 1.10,2013-03-24 02:17:00,
2013-03-23 19:32:00,42.7,32.0,30.29,SE,142,0.0,0.0,65,0.00,,,0.00,weatherlink.com 1.10,2013-03-24 02:32:00,
2013-03-23 19:47:00,41.5,32.0,30.29,SE,142,0.0,0.0,68,0.00,,,0.00,weatherlink.com 1.10,2013-03-24 02:47:00,
2013-03-23 20:02:00,40.9,33.0,30.29,SE,142,0.0,0.0,73,0.00,,,0.00,weatherlink.com 1.10,2013-03-24 03:02:00,
2013-03-23 20:17:00,40.4,33.0,30.29,South,177,0.0,0.0,75,0.00,,,0.00,weatherlink.com 1.10,2013-03-24 03:17:00,
2013-03-23 20:32:00,39.5,33.0,30.29,South,177,0.0,0.0,77,0.00,,,0.00,weatherlink.com 1.10,2013-03-24 03:32:00,
2013-03-23 20:47:00,38.9,33.0,30.30,South,177,0.0,0.0,78,0.00,,,0.00,weatherlink.com 1.10,2013-03-24 03:47:00,
2013-03-23 21:02:00,37.9,33.0,30.30,South,177,0.0,0.0,81,0.00,,,0.00,weatherlink.com 1.10,2013-03-24 04:02:00,
2013-03-23 21:17:00,38.1,33.0,30.30,South,177,0.0,0.0,83,0.00,,,0.00,weatherlink.com 1.10,2013-03-24 04:17:00,
2013-03-23 21:32:00,37.5,33.0,30.30,South,177,0.0,0.0,85,0.00,,,0.00,weatherlink.com 1.10,2013-03-24 04:32:00,
2013-03-23 21:47:00,37.1,34.0,30.30,South,177,0.0,0.0,87,0.00,,,0.00,weatherlink.com 1.10,2013-03-24 04:47:00,
2013-03-23 22:02:00,36.8,33.0,30.30,South,177,0.0,0.0,87,0.00,,,0.00,weatherlink.com 1.10,2013-03-24 05:02:00,
2013-03-23 22:17:00,36.9,34.0,30.30,SSW,212,0.0,0.0,88,0.00,,,0.00,weatherlink.com 1.10,2013-03-24 05:17:00,
2013-03-23 22:32:00,36.4,34.0,30.30,SSW,212,0.0,0.0,90,0.00,,,0.00,weatherlink.com 1.10,2013-03-24 05:32:00,
2013-03-23 22:47:00,36.0,33.0,30.30,SSW,212,0.0,0.0,90,0.00,,,0.00,weatherlink.com 1.10,2013-03-24 05:47:00,
2013-03-23 23:02:00,35.6,33.0,30.30,SSW,212,0.0,0.0,91,0.00,,,0.00,weatherlink.com 1.10,2013-03-24 06:02:00,
2013-03-23 23:17:00,35.5,33.0,30.30,SSW,212,0.0,0.0,91,0.00,,,0.00,weatherlink.com 1.10,2013-03-24 06:17:00,
2013-03-23 23:32:00,34.9,33.0,30.30,SSW,212,0.0,0.0,93,0.00,,,0.00,weatherlink.com 1.10,2013-03-24 06:32:00,
2013-03-23 23:47:00,34.7,33.0,30.29,SSW,213,0.0,0.0,92,0.00,,,0.00,weatherlink.com 1.10,2013-03-24 06:47:00,